KINDAKUN ROCKS(AUT) current weather conditions

sailwx.info

Wind from 160 at 28 knots gusting 35

Air temperature 8.0° C
Dewpoint 6.4° C

Last reported at 2018-May-26 12:00 UTC.
Time now 2018-May-26 14:06 UTC

Location: N 53°19' W 132°46'.
View on Google Maps.

See reports from other nearby stations

  
Tides and Currents Weather Stations Pressure Air Temp Water Temp Dewpoint Dewpoint Depression Visibility Wind Speed Wind Dir Waves Ship Positions
date/time (UTC)wind fromknots sea level pressurealtimeterstation pressurevisibilityair tempwater tempwave heightnotes
2018-May-26 12:00 160 28 gusting 35 8.0
2018-May-26 11:00 160 22 gusting 28 7.8
2018-May-26 10:00 160 24 gusting 31 8.0
2018-May-26 09:00 160 20 gusting 27 8.8
2018-May-26 08:00 170 18 9.0
2018-May-26 07:00 170 13 8.8
2018-May-26 06:00 180 13 8.7
2018-May-26 05:00 200 9 8.8
2018-May-26 04:00 210 8 9.0
2018-May-26 03:00 230 7 9.0
2018-May-26 02:00 260 7 9.7
2018-May-26 01:00 280 13 10.3
2018-May-26 00:00 280 15 10.0
2018-May-25 23:00 280 19 9.1
2018-May-25 22:00 280 24 9.2
2018-May-25 21:00 260 21 gusting 27 9.0
2018-May-25 20:00 260 18 9.0
2018-May-25 19:00 260 14 gusting 21 9.4
2018-May-25 18:00 240 14 9.0
2018-May-25 17:00 140 12 10.0
2018-May-25 16:00 100 8 gusting 14 9.0
2018-May-25 15:00 100 8 gusting 14 8.9
2018-May-25 14:00 100 6 9.0
2018-May-25 13:00 120 9 9.1
2018-May-25 12:00 120 11 8.9
2018-May-25 11:00 140 14 8.7
2018-May-25 10:00 140 13 gusting 19 7.5
2018-May-25 09:00 150 15 8.0
2018-May-25 08:00 160 20 8.5
2018-May-25 07:00 160 18 gusting 22 8.8
2018-May-25 06:00 140 17 9.0
2018-May-25 05:00 150 14 9.0
2018-May-25 04:00 150 15 gusting 20 10.0
2018-May-25 03:00 160 17 9.2
2018-May-25 02:00 160 14 9.0
2018-May-25 01:00 170 15 gusting 20 10.1
2018-May-25 00:00 170 12 10.4
2018-May-24 23:00 170 14 10.0
2018-May-24 22:00 150 13 10.8
2018-May-24 21:00 190 13 10.0
2018-May-24 20:00 160 14 10.0
2018-May-24 19:00 170 11 10.4
2018-May-24 18:00 160 12 9.8
2018-May-24 17:00 150 12 10.0
2018-May-24 16:00 140 13 8.9
2018-May-24 15:00 150 8 10.0
2018-May-24 14:00 140 8 9.0